Location: Christchurch
(43.5330°S, 172.6330°E)
Time: 13:53:27
(UTC+12:00)

Daily predictions for brighter satellites

Satellite Brightness Start Highest point End
(mag) Time Altitude Azimuth Time Altitude Azimuth Time Altitude Azimuth
Cosmos 1354 Rocket 4.0 17:38:19 10° SSW 17:43:40 75° ESE 17:48:55 10° NNE
USA 234 3.9 17:38:15 10° ESE 17:44:25 41° NE 17:50:32 10° NNW
Cosmos 1633 4.3 17:43:39 10° ENE 17:45:45 15° E 17:47:52 10° SE
SL-16 R/B 3.8 17:42:52 10° NE 17:46:01 15° E 17:49:10 10° ESE
Cosmos 1606 3.8 17:44:39 10° SSE 17:47:47 23° ESE 17:50:51 10° NE
Cosmos 1076 Rocket 4.4 17:44:30 10° NNE 17:48:12 28° E 17:51:57 10° SSE
IRIDIUM 104 4.5 17:43:39 10° S 17:48:52 55° E 17:54:01 10° NNE
Atlas Centaur 2 4.2 17:46:46 10° NW 17:50:11 18° N 17:54:06 10° NE
CZ-4B R/B 1.5 17:48:17 10° NNE 17:51:14 44° ESE 17:54:16 10° S
Cosmos 2151 4.4 17:50:06 10° NE 17:52:56 18° E 17:55:49 10° SE
Meteor PRIRODA 3.8 17:51:17 10° SSE 17:55:02 55° E 17:58:43 10° N
IRIDIUM 114 4.3 17:52:45 10° S 17:58:03 67° E 18:03:16 10° NNE
Cosmos 1437 Rocket 3.3 17:54:52 10° S 17:58:24 34° ESE 18:01:53 10° NE
ERS-2 3.8 18:00:32 10° ENE 18:02:48 16° ESE 18:05:05 10° SSE
Cosmos 1242 Rocket 4.0 18:00:54 10° SSE 18:03:38 19° ESE 18:06:19 10° ENE
Cosmos 1356 3.3 18:00:47 10° N 18:04:13 79° E 18:07:42 10° SSE
Genesis I 3.5 18:00:18 10° NW 18:04:15 71° SW 18:08:10 10° SSE
deb Chang Zheng 4 4.0 18:01:10 10° SSE 18:05:22 42° E 18:09:31 10° N
Meteor 2-15 4.4 17:59:47 10° S 18:05:57 76° E 18:12:03 10° NNE
IRIDIUM 103 4.3 18:01:51 10° S 18:07:11 81° E 18:12:27 10° N
Envisat 3.0 18:02:09 10° SSE 18:07:21 83° ENE 18:12:28 10° NNW
ATLAS 3B R/B 3.0 17:59:50 10° NNW 18:07:23 90° NE 18:14:48 10° SE
Cosmos 2333 Rocket 3.6 18:02:27 10° WNW 18:07:38 36° SW 18:12:53 10° S
Cosmos 2058 3.0 18:04:25 10° N 18:08:34 84° W 18:12:48 10° S
H-2A R/B 3.3 18:08:42 10° S 18:12:33 61° WSW 18:16:19 10° NNW
SJ 16-02 2.2 18:09:04 10° S 18:12:58 28° ESE 18:16:49 10° ENE
Cosmos 2237 Rocket 2.2 18:08:06 10° NNW 18:13:46 75° ENE 18:19:31 10° SSE
SMAP 3.8 18:09:31 10° SSE 18:13:46 32° E 18:17:58 10° NNE
Cosmos 1943 Rocket 3.3 18:14:40 10° S 18:19:07 23° SE 18:21:53 16° E
NOAA 6 4.3 18:15:09 10° SSE 18:20:11 47° E 18:25:07 10° N
H-2A R/B 4.3 18:21:40 12° ENE 18:21:40 12° ENE 18:22:25 10° NE
Cosmos 1553 Rocket 4.1 18:15:43 10° S 18:21:42 50° ESE 18:27:37 10° NNE
Cosmos 1867 4.3 18:18:39 10° SSW 18:23:30 32° SE 18:26:56 17° E
Cosmos 1689 Rocket 2.8 18:21:24 10° NE 18:23:59 30° ESE 18:26:37 10° S
SL-8 R/B 3.9 18:20:59 10° WNW 18:25:52 70° SSW 18:29:12 20° ESE
CSL-04 DEB 4.4 18:22:43 10° NNE 18:26:40 81° WNW 18:30:43 10° SSW
NOSS 0 Rocket 4.3 18:22:26 10° NW 18:28:40 69° WSW 18:34:55 10° SSE
Okean O Rocket 2.6 18:34:14 24° ESE 18:35:11 26° E 18:38:57 10° NNE
PSLV R/B 3.6 18:32:36 10° SSE 18:36:25 63° ENE 18:40:07 10° N
Lacrosse 5 1.8 18:33:18 10° SW 18:38:27 68° SE 18:42:25 17° ENE
Cosmos 2278 Rocket 2.9 18:32:59 10° SSW 18:38:38 59° WNW 18:44:12 10° N
Cosmos 2369 Rocket 3.6 18:37:59 10° S 18:41:49 19° SE 18:41:49 19° SE
Cosmos 1777 Rocket 4.3 18:37:16 10° SSW 18:42:35 72° WNW 18:47:48 10° N
MOS 1-B 4.4 18:38:55 10° SSE 18:44:42 56° E 18:50:25 10° N
Cosmos 1933 3.7 18:41:34 10° S 18:45:35 43° ESE 18:49:31 10° NNE
Cosmos 2219 Rocket 4.3 18:42:53 10° W 18:47:12 22° SW 18:51:33 10° S
CZ-4B R/B 3.5 18:44:38 14° SSE 18:48:55 41° E 18:53:55 10° N
CZ-2C R/B 3.3 18:46:14 10° N 18:51:48 60° W 18:57:24 10° SSW
NOAA 11 4.2 18:50:42 10° SSE 18:56:16 89° WSW 19:01:46 10° NNW
Cosmos 990 Rocket 4.4 18:51:59 10° S 18:56:52 38° ESE 18:57:40 36° E
Cosmos 1898 Rocket 4.1 18:56:19 10° S 19:00:48 34° SE 19:00:48 34° SE
Meteor 2-3 Rocket 3.6 18:57:00 10° N 19:02:35 67° E 19:08:17 10° SSE
Cosmos 1655 Rocket 4.0 18:57:08 10° N 19:03:23 67° E 19:09:48 10° SSE
PAYLOAD B 4.1 18:59:11 10° SSE 19:04:53 82° ENE 19:10:27 10° NNW
Cosmos 1461 3.7 19:01:04 10° SW 19:05:20 55° WNW 19:09:45 10° NNE
Cosmos 1766 Rocket 4.3 19:01:09 10° NNE 19:04:23 37° NE 19:04:23 37° NE
ATLAS CENTAUR R/B 1.6 19:14:55 10° SSW 19:18:33 56° S 19:18:33 56° S
Cosmos 1939 Rocket 3.0 19:17:52 31° S 19:19:50 78° WSW 19:24:01 10° NNW
Cosmos 1633 4.3 19:16:54 10° NW 19:20:11 33° WSW 19:23:32 10° S
Cosmos 883 Rocket 4.4 19:19:03 10° S 19:25:19 69° E 19:31:33 10° NNE
Lacrosse 5 rocket 4.0 19:23:40 10° N 19:24:00 11° NNE 19:24:00 11° NNE
CZ-2C R/B 2.7 19:25:08 35° SSE 19:27:14 89° WSW 19:32:02 10° NNW
USA 234 3.5 19:24:15 31° SE 19:27:37 65° SW 19:34:07 10° WNW
SL-16 R/B 2.2 19:23:41 10° NNW 19:29:22 79° WSW 19:32:00 34° SSE
Cosmos 2151 4.3 19:25:54 10° NNW 19:29:53 39° WSW 19:33:56 10° S
Radarsat Rocket 4.1 19:24:00 10° SSE 19:30:06 73° WSW 19:35:55 10° NNW
ERS-2 3.5 19:32:30 10° N 19:35:59 39° W 19:39:31 10° SSW
Cosmos 2266 Rocket 4.1 19:35:47 10° NNW 19:41:51 75° W 19:48:05 10° S
Cosmos 2297 3.9 19:38:09 10° SSW 19:43:55 71° WNW 19:46:43 31° N
SJ 16-02 3.3 19:47:38 10° SW 19:51:28 29° W 19:55:17 10° NNW
H-2A R/B 4.5 19:58:12 22° NW 19:58:12 22° NW 19:59:44 10° NW
Cosmos 2237 Rocket 4.4 19:54:18 10° W 19:58:28 20° SW 20:02:41 10° S
ATLAS 3B R/B 4.4 19:52:46 10° W 19:59:04 28° SSW 20:03:08 18° SSE
Cosmos 1943 Rocket 2.5 19:57:42 10° SSW 20:03:22 65° WNW 20:03:29 65° WNW
Cosmos 1607 4.4 19:59:57 10° SW 20:05:59 58° WNW 20:07:09 50° NNW
Cosmos 1867 4.4 20:02:06 10° SW 20:07:14 46° WNW 20:07:40 45° NW
Cosmos 1763 Rocket 4.2 20:03:48 10° NW 20:08:35 53° W 20:08:35 53° W
Cosmos 2315 Rocket 4.3 20:04:37 10° SSW 20:10:56 66° W 20:17:12 10° N
Okean O Rocket 3.3 20:11:42 33° WSW 20:11:42 33° WSW 20:15:34 10° NW
Lacrosse 5 3.9 20:17:01 10° WSW 20:21:01 23° WNW 20:21:42 22° NW
Cosmos 2369 Rocket 3.7 20:21:00 10° SSW 20:23:38 28° SSW 20:23:38 28° SSW
NOSS 3-1 (C) 4.4 20:35:17 10° NW 20:42:39 64° NW 20:42:39 64° NW
